Hourly Weather Roundup
Issued by NWS

Home | Current Version | Previous Version | Text Only | Print | Product List | Glossary On
Versions: 1 2 3 4 5 6 7 8 9 10 11 12 13 14 15 16 17 18 19 20 21 22 23 24 25 26 27 28 29 30 31 32 33 34 35 36 37 38 39 40 41 42 43 44 45 46 47 48 49 50
000
NZUS43 KILX 090010
HWRCRS

NWR HOURLY WEATHER ROUNDUP
NATIONAL WEATHER SERVICE, LINCOLN IL
600 PM CST THU DEC 08 2016


CITY           SKY/WX    TMP DP  RH WIND       PRES   REMARKS
CHAMPAIGN      FLURRIES  21  12  68 W20       30.47R WCI   6
LAWRENCEVILLE  CLOUDY    25  14  63 NW16      30.50S WCI  12
PEORIA         CLOUDY    21  12  68 NW13G18   30.50R WCI   9
SPRINGFIELD    CLOUDY    23  13  65 NW12      30.52R WCI  12
$$


CITY           SKY/WX    TMP DP  RH WIND       PRES   REMARKS
BLOOMINGTON    FLURRIES  20  14  77 NW20      30.45S WCI   4
DANVILLE       CLOUDY    21  14  73 W17G23    30.42R WCI   7
DECATUR        CLOUDY    21  12  68 W13G24    30.49R WCI   9
EFFINGHAM      CLOUDY    25  17  69 W12       30.52R WCI  15
FLORA          CLOUDY    28  16  63 NW8G17    30.52S WCI  19
GALESBURG      CLOUDY    20  14  76 W15       30.49S WCI   7
JACKSONVILLE   CLOUDY    20  13  72 W7        30.53R WCI  11
LACON          FLURRIES  22  14  73 W12G18    30.48R WCI  10
LINCOLN        CLOUDY    22  14  71 NW10      30.50S WCI  11
LITCHFIELD     CLOUDY    24  15  66 NW15      30.52R WCI  12

CITY           SKY/WX    TMP DP  RH WIND       PRES   REMARKS
MACOMB         CLOUDY    21  13  72 NW13      30.54S WCI   8
MATTOON        CLOUDY    22  12  65 NW17      30.48R WCI   8
MOLINE         CLOUDY    23  13  65 W14       30.48R WCI  11
OLNEY          CLOUDY    27  18  69 NW13      30.51S WCI  16
PARIS          CLOUDY    22  15  75 W18       30.48R WCI   7
PONTIAC        MIX PCPN  23  17  77 W17       30.46R WCI  10
QUINCY         CLEAR     20  12  71 NW8       30.53R WCI  10
RANTOUL        FLURRIES  23  16  74 W16       30.45S WCI   9
ROBINSON       CLOUDY    24  15  68 NW16      30.50S WCI  11
TAYLORVILLE    CLOUDY    23  13  64 NW10G22   30.51R WCI  12
TERRE HAUTE    CLOUDY    22  12  65 W12G24    30.48R WCI  10
$$


CITY           SKY/WX    TMP DP  RH WIND       PRES   REMARKS
BURLINGTON     CLOUDY    21  12  68 NW8       30.52R WCI  11
CHICAGO        FLURRIES  23  15  71 W16       30.37R WCI  10
DES MOINES     CLEAR     21  10  62 NW10      30.55R WCI  10
EVANSVILLE     CLOUDY    28  14  55 NW8       30.51R WCI  20
INDIANAPOLIS   FLURRIES  22  13  68 W21       30.41R WCI   6
KANSAS CITY    PTCLDY    20   8  60 NW7       30.62R WCI  11
MILWAUKEE      PTCLDY    25  15  66 W14       30.31R WCI  13
ST LOUIS       PTCLDY    26  11  52 NW8       30.55R WCI  18
$$





USA.gov is the U.S. government's official web portal to all federal, state and local government web resources and services.